| time (UTC) | temp C | wind direction | speed KPH | gust KPH | rain 1hr cm | rain 24hr cm | rain mn cm | humidity % | barometer mb |
| 20260507043003 | 16 | 344 | 9.7 | 16.1 | 0.00 | 0.00 | 0.00 | 84 | 1011.3 |
| 20260507042508 | 16 | 340 | 11.3 | 16.1 | 0.00 | 0.00 | 0.00 | 84 | 1011.4 |
| 20260507042004 | 16 | 332 | 8.0 | 16.1 | 0.00 | 0.00 | 0.00 | 84 | 1011.5 |
| 20260507041505 | 16 | 342 | 8.0 | 14.5 | 0.00 | 0.00 | 0.00 | 84 | 1011.7 |
| 20260507041003 | 16 | 351 | 8.0 | 14.5 | 0.00 | 0.00 | 0.00 | 84 | 1011.6 |
| 20260507040714 | 16 | 353 | 9.7 | 16.1 | 0.00 | 0.00 | 0.00 | 84 | 1011.6 |
| 20260507040217 | 16 | 355 | 9.7 | 16.1 | 0.00 | 0.00 | 0.00 | 84 | 1011.4 |
| 20260507035503 | 16 | 356 | 9.7 | 17.7 | 0.00 | 0.00 | 0.00 | 85 | 1011.5 |
| 20260507035004 | 16 | 360 | 8.0 | 16.1 | 0.00 | 0.00 | 0.00 | 85 | 1011.4 |
| 20260507034503 | 16 | 356 | 4.8 | 11.3 | 0.00 | 0.00 | 0.00 | 85 | 1011.5 |
| 20260507034003 | 16 | 342 | 3.2 | 11.3 | 0.00 | 0.00 | 0.00 | 86 | 1011.5 |
| 20260507033504 | 16 | 349 | 4.8 | 12.9 | 0.00 | 0.00 | 0.00 | 86 | 1011.6 |
| 20260507033003 | 16 | 350 | 6.4 | 12.9 | 0.00 | 0.00 | 0.00 | 86 | 1011.4 |
| 20260507032504 | 16 | 354 | 6.4 | 12.9 | 0.00 | 0.00 | 0.00 | 86 | 1011.4 |
| 20260507032215 | 16 | 357 | 6.4 | 12.9 | 0.00 | 0.00 | 0.00 | 87 | 1011.2 |
| 20260507031713 | 16 | 342 | 6.4 | 12.9 | 0.00 | 0.00 | 0.00 | 87 | 1011.4 |
| 20260507031003 | 16 | 322 | 4.8 | 12.9 | 0.00 | 0.00 | 0.00 | 87 | 1011.5 |
| 20260507030503 | 16 | 307 | 4.8 | 6.4 | 0.00 | 0.00 | 0.00 | 87 | 1011.5 |
| 20260507030003 | 16 | 306 | 4.8 | 6.4 | 0.00 | 0.00 | 0.00 | 87 | 1011.6 |
| 20260507025503 | 16 | 314 | 4.8 | 9.7 | 0.00 | 0.00 | 0.00 | 87 | 1011.5 |
| 20260507025213 | 16 | 323 | 4.8 | 11.3 | 0.00 | 0.00 | 0.00 | 87 | 1011.6 |
| 20260507024503 | 16 | 330 | 6.4 | 11.3 | 0.00 | 0.00 | 0.00 | 87 | 1011.6 |
| 20260507024003 | 16 | 342 | 4.8 | 11.3 | 0.00 | 0.00 | 0.00 | 87 | 1011.6 |
| 20260507023503 | 16 | 353 | 6.4 | 11.3 | 0.00 | 0.00 | 0.00 | 87 | 1011.4 |
| 20260507023004 | 16 | 349 | 6.4 | 11.3 | 0.00 | 0.00 | 0.00 | 87 | 1011.6 |
| 20260507022503 | 16 | 340 | 6.4 | 12.9 | 0.00 | 0.00 | 0.00 | 87 | 1011.6 |
| 20260507022003 | 16 | 320 | 4.8 | 12.9 | 0.00 | 0.00 | 0.00 | 86 | 1011.8 |
| 20260507021503 | 16 | 313 | 4.8 | 9.7 | 0.00 | 0.00 | 0.00 | 86 | 1011.7 |
| 20260507021003 | 16 | 328 | 4.8 | 11.3 | 0.00 | 0.00 | 0.00 | 86 | 1011.9 |
| 20260507020503 | 16 | 325 | 4.8 | 11.3 | 0.00 | 0.00 | 0.00 | 86 | 1012.0 |
| 20260507020003 | 16 | 340 | 4.8 | 9.7 | 0.00 | 0.00 | 0.00 | 86 | 1011.9 |
| 20260507015503 | 16 | 7 | 4.8 | 9.7 | 0.00 | 0.00 | 0.00 | 86 | 1012.0 |
| 20260507015214 | 16 | 15 | 3.2 | 6.4 | 0.00 | 0.00 | 0.00 | 86 | 1011.7 |
| 20260507014717 | 16 | 27 | 1.6 | 6.4 | 0.00 | 0.00 | 0.00 | 86 | 1011.9 |
| 20260507014215 | 16 | 13 | 1.6 | 6.4 | 0.00 | 0.00 | 0.00 | 86 | 1011.9 |
| 20260507013503 | 16 | 345 | 3.2 | 6.4 | 0.00 | 0.00 | 0.00 | 85 | 1012.2 |
| 20260507013003 | 17 | 352 | 3.2 | 9.7 | 0.00 | 0.00 | 0.00 | 85 | 1012.1 |
| 20260507012503 | 17 | 342 | 4.8 | 9.7 | 0.00 | 0.00 | 0.00 | 85 | 1012.3 |
| 20260507012003 | 17 | 339 | 4.8 | 9.7 | 0.00 | 0.00 | 0.00 | 85 | 1012.2 |
| 20260507011503 | 17 | 339 | 4.8 | 9.7 | 0.00 | 0.00 | 0.00 | 85 | 1012.3 |
| 20260507011003 | 17 | 329 | 4.8 | 9.7 | 0.00 | 0.00 | 0.00 | 85 | 1012.3 |
| 20260507010503 | 17 | 330 | 3.2 | 6.4 | 0.00 | 0.00 | 0.00 | 85 | 1012.3 |
| 20260507010004 | 17 | 13 | 1.6 | 6.4 | 0.00 | 0.00 | 0.00 | 84 | 1012.3 |
| 20260507005503 | 17 | 341 | 1.6 | 6.4 | 0.00 | 0.00 | 0.00 | 84 | 1012.4 |
| 20260507005003 | 17 | 307 | 3.2 | 6.4 | 0.00 | 0.00 | 0.00 | 84 | 1012.5 |
| 20260507004503 | 17 | 309 | 4.8 | 9.7 | 0.00 | 0.00 | 0.00 | 84 | 1012.3 |
| 20260507004003 | 17 | 309 | 4.8 | 9.7 | 0.00 | 0.00 | 0.00 | 84 | 1012.5 |
| 20260507003503 | 17 | 290 | 3.2 | 6.4 | 0.00 | 0.00 | 0.00 | 84 | 1012.3 |
| 20260507003216 | 17 | 293 | 3.2 | 9.7 | 0.00 | 0.00 | 0.00 | 84 | 1012.5 |
| 20260507002503 | 17 | 300 | 4.8 | 9.7 | 0.00 | 0.00 | 0.00 | 84 | 1012.2 |
| 20260507002003 | 17 | 305 | 4.8 | 9.7 | 0.00 | 0.00 | 0.00 | 84 | 1012.2 |
| 20260507001503 | 17 | 303 | 3.2 | 9.7 | 0.00 | 0.00 | 0.00 | 84 | 1012.1 |
| 20260507001003 | 17 | 260 | 1.6 | 4.8 | 0.00 | 0.00 | 0.00 | 84 | 1012.3 |
| 20260507000503 | 16 | 248 | 1.6 | 9.7 | 0.00 | 0.00 | 0.00 | 84 | 1012.2 |
| 20260507000003 | 16 | 249 | 3.2 | 9.7 | 0.00 | 0.00 | 0.00 | 84 | 1012.1 |
| 20260506235503 | 16 | 250 | 3.2 | 9.7 | 0.00 | 0.00 | 0.00 | 84 | 1012.2 |
| 20260506235003 | 16 | 252 | 1.6 | 6.4 | 0.00 | 0.00 | 0.00 | 84 | 1012.5 |
| 20260506234504 | 16 | 252 | 1.6 | 4.8 | 0.00 | 0.00 | 0.00 | 84 | 1012.4 |
| 20260506234003 | 16 | 256 | 3.2 | 6.4 | 0.00 | 0.00 | 0.00 | 84 | 1012.4 |
| 20260506233503 | 16 | 264 | 3.2 | 6.4 | 0.00 | 0.00 | 0.00 | 83 | 1012.5 |
| 20260506233003 | 16 | 259 | 3.2 | 6.4 | 0.00 | 0.00 | 0.00 | 83 | 1012.5 |
| 20260506232503 | 16 | 237 | 3.2 | 4.8 | 0.00 | 0.00 | 0.00 | 83 | 1012.6 |
| 20260506232213 | 16 | 239 | 3.2 | 6.4 | 0.00 | 0.00 | 0.00 | 83 | 1012.6 |
| 20260506231503 | 16 | 254 | 4.8 | 9.7 | 0.00 | 0.00 | 0.00 | 82 | 1012.7 |
| 20260506231004 | 16 | 254 | 4.8 | 9.7 | 0.00 | 0.00 | 0.00 | 82 | 1012.6 |
| 20260506230503 | 16 | 254 | 3.2 | 9.7 | 0.00 | 0.00 | 0.00 | 82 | 1012.9 |
| 20260506230003 | 16 | 249 | 1.6 | 4.8 | 0.00 | 0.00 | 0.00 | 82 | 1012.8 |
| 20260506225504 | 16 | 249 | 1.6 | 4.8 | 0.00 | 0.00 | 0.00 | 82 | 1012.6 |
| 20260506225003 | 16 | 252 | 4.8 | 9.7 | 0.00 | 0.00 | 0.00 | 82 | 1012.5 |
| 20260506224503 | 16 | 251 | 3.2 | 9.7 | 0.00 | 0.00 | 0.00 | 81 | 1012.9 |
| 20260506224003 | 17 | 247 | 1.6 | 4.8 | 0.00 | 0.00 | 0.00 | 81 | 1012.9 |
| 20260506223503 | 17 | 245 | 1.6 | 3.2 | 0.00 | 0.00 | 0.00 | 80 | 1012.7 |
| 20260506223003 | 17 | 249 | 1.6 | 3.2 | 0.00 | 0.00 | 0.00 | 80 | 1013.0 |
| 20260506222716 | 17 | 251 | 1.6 | 3.2 | 0.00 | 0.00 | 0.00 | 80 | 1012.9 |
| 20260506222003 | 17 | 276 | 3.2 | 4.8 | 0.00 | 0.00 | 0.00 | 80 | 1012.9 |
| 20260506221504 | 17 | 289 | 1.6 | 4.8 | 0.00 | 0.00 | 0.00 | 80 | 1012.6 |
| 20260506221003 | 17 | 275 | 1.6 | 3.2 | 0.00 | 0.00 | 0.00 | 80 | 1012.8 |
| 20260506220503 | 17 | 121 | 0.0 | 3.2 | 0.00 | 0.00 | 0.00 | 80 | 1012.7 |
| 20260506220006 | 17 | 93 | 1.6 | 4.8 | 0.00 | 0.00 | 0.00 | 80 | 1012.5 |
| 20260506215503 | 17 | 46 | 1.6 | 4.8 | 0.00 | 0.00 | 0.00 | 80 | 1012.5 |
| 20260506215003 | 17 | 360 | 1.6 | 4.8 | 0.00 | 0.00 | 0.00 | 80 | 1012.6 |
| 20260506214503 | 17 | 5 | 3.2 | 6.4 | 0.00 | 0.00 | 0.00 | 80 | 1013.0 |
| 20260506214003 | 17 | 29 | 3.2 | 9.7 | 0.00 | 0.00 | 0.00 | 80 | 1013.1 |
| 20260506213503 | 17 | 38 | 3.2 | 9.7 | 0.00 | 0.00 | 0.00 | 80 | 1013.0 |
| 20260506213213 | 17 | 34 | 3.2 | 9.7 | 0.00 | 0.00 | 0.00 | 79 | 1013.0 |
| 20260506212503 | 17 | 66 | 3.2 | 9.7 | 0.00 | 0.00 | 0.00 | 79 | 1013.0 |
| 20260506212214 | 17 | 94 | 1.6 | 6.4 | 0.00 | 0.00 | 0.00 | 79 | 1013.3 |
| 20260506211503 | 18 | 177 | 1.6 | 4.8 | 0.00 | 0.00 | 0.00 | 79 | 1013.3 |
| 20260506211003 | 18 | 164 | 1.6 | 4.8 | 0.00 | 0.00 | 0.00 | 79 | 1013.3 |
| 20260506210519 | 18 | 155 | 1.6 | 4.8 | 0.00 | 0.00 | 0.00 | 79 | 1013.3 |
| 20260506210004 | 18 | 144 | 3.2 | 4.8 | 0.00 | 0.00 | 0.00 | 78 | 1013.1 |
| 20260506205503 | 18 | 139 | 3.2 | 4.8 | 0.00 | 0.00 | 0.00 | 78 | 1013.1 |
| 20260506205217 | 18 | 139 | 1.6 | 4.8 | 0.00 | 0.00 | 0.00 | 78 | 1013.3 |
| 20260506204503 | 18 | 124 | 3.2 | 6.4 | 0.00 | 0.00 | 0.00 | 77 | 1012.9 |
| 20260506204003 | 18 | 134 | 3.2 | 6.4 | 0.00 | 0.00 | 0.00 | 77 | 1012.9 |
| 20260506203503 | 18 | 155 | 3.2 | 6.4 | 0.00 | 0.00 | 0.00 | 77 | 1013.2 |
| 20260506203214 | 18 | 155 | 3.2 | 6.4 | 0.00 | 0.00 | 0.00 | 77 | 1013.0 |
| 20260506202717 | 18 | 143 | 3.2 | 9.7 | 0.00 | 0.00 | 0.00 | 76 | 1012.7 |
| 20260506202003 | 18 | 125 | 4.8 | 9.7 | 0.00 | 0.00 | 0.00 | 76 | 1012.7 |
| 20260506201503 | 18 | 134 | 3.2 | 6.4 | 0.00 | 0.00 | 0.00 | 76 | 1012.8 |
| 20260506201003 | 18 | 129 | 1.6 | 6.4 | 0.00 | 0.00 | 0.00 | 75 | 1012.7 |
| 20260506200503 | 18 | 119 | 3.2 | 11.3 | 0.00 | 0.00 | 0.00 | 75 | 1012.7 |
| 20260506200003 | 18 | 127 | 4.8 | 11.3 | 0.00 | 0.00 | 0.00 | 75 | 1012.3 |
| 20260506195503 | 18 | 123 | 3.2 | 9.7 | 0.00 | 0.00 | 0.00 | 75 | 1012.6 |
| 20260506195213 | 18 | 101 | 3.2 | 9.7 | 0.00 | 0.00 | 0.00 | 75 | 1012.5 |
| 20260506194503 | 18 | 102 | 4.8 | 12.9 | 0.00 | 0.00 | 0.00 | 75 | 1012.5 |
| 20260506194003 | 18 | 105 | 6.4 | 12.9 | 0.00 | 0.00 | 0.00 | 75 | 1012.3 |
| 20260506193503 | 18 | 100 | 4.8 | 12.9 | 0.00 | 0.00 | 0.00 | 75 | 1012.2 |
| 20260506193003 | 18 | 106 | 4.8 | 12.9 | 0.00 | 0.00 | 0.00 | 75 | 1012.3 |
| 20260506192503 | 18 | 112 | 4.8 | 12.9 | 0.00 | 0.00 | 0.00 | 75 | 1012.2 |
| 20260506192003 | 18 | 104 | 4.8 | 11.3 | 0.00 | 0.00 | 0.00 | 74 | 1012.0 |
| 20260506191503 | 18 | 101 | 4.8 | 12.9 | 0.00 | 0.00 | 0.00 | 74 | 1012.1 |
| 20260506191003 | 18 | 103 | 6.4 | 16.1 | 0.00 | 0.00 | 0.00 | 74 | 1012.0 |
| 20260506190503 | 18 | 110 | 9.7 | 16.1 | 0.00 | 0.00 | 0.00 | 74 | 1011.8 |
| 20260506190004 | 18 | 113 | 8.0 | 16.1 | 0.00 | 0.00 | 0.00 | 75 | 1012.0 |
| 20260506185716 | 18 | 112 | 8.0 | 16.1 | 0.00 | 0.00 | 0.00 | 74 | 1011.8 |
| 20260506185003 | 18 | 118 | 6.4 | 16.1 | 0.00 | 0.00 | 0.00 | 73 | 1011.9 |
| 20260506184503 | 18 | 113 | 6.4 | 16.1 | 0.00 | 0.00 | 0.00 | 73 | 1011.8 |
| 20260506184214 | 18 | 110 | 8.0 | 16.1 | 0.00 | 0.00 | 0.00 | 74 | 1011.9 |
| 20260506183503 | 18 | 77 | 4.8 | 16.1 | 0.00 | 0.00 | 0.00 | 74 | 1011.8 |
| 20260506183003 | 18 | 52 | 4.8 | 17.7 | 0.00 | 0.00 | 0.00 | 74 | 1011.5 |
| 20260506182504 | 18 | 42 | 6.4 | 17.7 | 0.00 | 0.00 | 0.00 | 75 | 1011.5 |
| 20260506182216 | 18 | 37 | 6.4 | 16.1 | 0.00 | 0.00 | 0.00 | 75 | 1011.6 |
| 20260506181503 | 18 | 46 | 6.4 | 17.7 | 0.00 | 0.00 | 0.00 | 74 | 1011.4 |
| 20260506181217 | 18 | 69 | 6.4 | 17.7 | 0.00 | 0.00 | 0.00 | 74 | 1011.5 |
| 20260506180503 | 19 | 104 | 8.0 | 20.9 | 0.00 | 0.00 | 0.00 | 73 | 1011.6 |
| 20260506180004 | 18 | 89 | 8.0 | 22.5 | 0.00 | 0.00 | 0.00 | 74 | 1011.4 |
| 20260506175503 | 18 | 87 | 8.0 | 22.5 | 0.00 | 0.00 | 0.00 | 74 | 1011.5 |
| 20260506175003 | 19 | 90 | 9.7 | 24.1 | 0.00 | 0.00 | 0.00 | 73 | 1011.5 |
| 20260506174503 | 18 | 90 | 9.7 | 24.1 | 0.00 | 0.00 | 0.00 | 73 | 1011.5 |
| 20260506174003 | 19 | 91 | 9.7 | 24.1 | 0.00 | 0.00 | 0.00 | 72 | 1011.3 |
| 20260506173503 | 19 | 88 | 9.7 | 24.1 | 0.00 | 0.00 | 0.00 | 71 | 1011.7 |
| 20260506173003 | 19 | 92 | 11.3 | 25.7 | 0.00 | 0.00 | 0.00 | 70 | 1011.5 |
| 20260506172504 | 19 | 93 | 9.7 | 25.7 | 0.00 | 0.00 | 0.00 | 69 | 1011.6 |
| 20260506172003 | 19 | 89 | 8.0 | 25.7 | 0.00 | 0.00 | 0.00 | 69 | 1011.5 |
| 20260506171503 | 19 | 108 | 11.3 | 29.0 | 0.00 | 0.00 | 0.00 | 69 | 1011.4 |
| 20260506171003 | 19 | 113 | 14.5 | 29.0 | 0.00 | 0.00 | 0.00 | 67 | 1011.6 |
| 20260506170503 | 19 | 111 | 11.3 | 29.0 | 0.00 | 0.00 | 0.00 | 69 | 1011.5 |
| 20260506170003 | 19 | 101 | 9.7 | 25.7 | 0.00 | 0.00 | 0.00 | 69 | 1011.6 |
| 20260506165503 | 19 | 104 | 11.3 | 29.0 | 0.00 | 0.00 | 0.00 | 71 | 1011.5 |
| 20260506165004 | 19 | 109 | 14.5 | 30.6 | 0.00 | 0.00 | 0.00 | 70 | 1011.5 |
| 20260506164503 | 19 | 100 | 12.9 | 30.6 | 0.00 | 0.00 | 0.00 | 71 | 1011.5 |
| 20260506164003 | 19 | 95 | 9.7 | 29.0 | 0.00 | 0.00 | 0.00 | 68 | 1011.6 |
| 20260506163503 | 19 | 102 | 11.3 | 33.8 | 0.00 | 0.00 | 0.00 | 68 | 1011.6 |
| 20260506163003 | 19 | 105 | 14.5 | 33.8 | 0.00 | 0.00 | 0.00 | 69 | 1011.4 |
| 20260506162503 | 19 | 91 | 12.9 | 30.6 | 0.00 | 0.00 | 0.00 | 70 | 1011.7 |
| 20260506162003 | 19 | 81 | 11.3 | 30.6 | 0.00 | 0.00 | 0.00 | 69 | 1011.7 |
| 20260506161503 | 20 | 93 | 9.7 | 25.7 | 0.00 | 0.00 | 0.00 | 70 | 1011.5 |
| 20260506161003 | 20 | 90 | 8.0 | 22.5 | 0.00 | 0.00 | 0.00 | 70 | 1011.5 |
| 20260506160716 | 20 | 96 | 9.7 | 24.1 | 0.00 | 0.00 | 0.00 | 69 | 1011.8 |
| 20260506160003 | 20 | 113 | 14.5 | 29.0 | 0.00 | 0.00 | 0.00 | 69 | 1011.7 |
| 20260506155503 | 20 | 98 | 12.9 | 29.0 | 0.00 | 0.00 | 0.00 | 69 | 1011.6 |
| 20260506155003 | 20 | 94 | 11.3 | 29.0 | 0.00 | 0.00 | 0.00 | 69 | 1011.5 |
| 20260506154503 | 20 | 91 | 11.3 | 29.0 | 0.00 | 0.00 | 0.00 | 69 | 1011.6 |
| 20260506154004 | 20 | 87 | 12.9 | 29.0 | 0.00 | 0.00 | 0.00 | 69 | 1011.5 |
| 20260506153503 | 20 | 92 | 14.5 | 30.6 | 0.00 | 0.00 | 0.00 | 69 | 1011.9 |
| 20260506153217 | 20 | 87 | 12.9 | 30.6 | 0.00 | 0.00 | 0.00 | 69 | 1011.5 |
| 20260506152503 | 20 | 103 | 14.5 | 37.0 | 0.00 | 0.00 | 0.00 | 67 | 1011.7 |
| 20260506152004 | 20 | 94 | 16.1 | 37.0 | 0.00 | 0.00 | 0.00 | 67 | 1011.2 |
| 20260506151504 | 20 | 60 | 12.9 | 35.4 | 0.00 | 0.00 | 0.00 | 64 | 1011.4 |
| 20260506151003 | 20 | 57 | 12.9 | 35.4 | 0.00 | 0.00 | 0.00 | 65 | 1011.7 |
| 20260506150717 | 20 | 68 | 11.3 | 30.6 | 0.00 | 0.00 | 0.00 | 66 | 1011.4 |
| 20260506150003 | 20 | 80 | 11.3 | 30.6 | 0.00 | 0.00 | 0.00 | 62 | 1011.7 |
| 20260506145503 | 20 | 99 | 12.9 | 27.4 | 0.00 | 0.00 | 0.00 | 60 | 1011.5 |
| 20260506145004 | 20 | 115 | 14.5 | 30.6 | 0.00 | 0.00 | 0.00 | 59 | 1011.5 |
| 20260506144503 | 20 | 105 | 12.9 | 30.6 | 0.00 | 0.00 | 0.00 | 61 | 1011.2 |
| 20260506144003 | 21 | 107 | 12.9 | 29.0 | 0.00 | 0.00 | 0.00 | 60 | 1011.4 |
| 20260506143503 | 20 | 102 | 11.3 | 27.4 | 0.00 | 0.00 | 0.00 | 61 | 1011.4 |
| 20260506143213 | 20 | 89 | 9.7 | 27.4 | 0.00 | 0.00 | 0.00 | 59 | 1011.5 |
| 20260506142503 | 20 | 91 | 17.7 | 37.0 | 0.00 | 0.00 | 0.00 | 62 | 1011.4 |
| 20260506142005 | 20 | 105 | 14.5 | 37.0 | 0.00 | 0.00 | 0.00 | 57 | 1011.1 |
| 20260506141503 | 21 | 81 | 11.3 | 33.8 | 0.00 | 0.00 | 0.00 | 59 | 1011.2 |
| 20260506141003 | 21 | 73 | 12.9 | 33.8 | 0.00 | 0.00 | 0.00 | 59 | 1011.1 |
| 20260506140503 | 21 | 65 | 12.9 | 38.6 | 0.00 | 0.00 | 0.00 | 58 | 1011.3 |
| 20260506140003 | 21 | 63 | 14.5 | 38.6 | 0.00 | 0.00 | 0.00 | 56 | 1011.4 |
| 20260506135713 | 21 | 65 | 16.1 | 37.0 | 0.00 | 0.00 | 0.00 | 55 | 1011.3 |
| 20260506135003 | 20 | 79 | 16.1 | 40.2 | 0.00 | 0.00 | 0.00 | 57 | 1011.3 |
| 20260506134714 | 21 | 91 | 16.1 | 40.2 | 0.00 | 0.00 | 0.00 | 57 | 1011.4 |
| 20260506134003 | 21 | 78 | 14.5 | 33.8 | 0.00 | 0.00 | 0.00 | 57 | 1011.5 |
| 20260506133503 | 21 | 74 | 14.5 | 33.8 | 0.00 | 0.00 | 0.00 | 59 | 1011.5 |
| 20260506133003 | 21 | 88 | 16.1 | 29.0 | 0.00 | 0.00 | 0.00 | 58 | 1011.6 |
| 20260506132503 | 21 | 94 | 16.1 | 33.8 | 0.00 | 0.00 | 0.00 | 59 | 1011.9 |
| 20260506132003 | 21 | 92 | 16.1 | 33.8 | 0.00 | 0.00 | 0.00 | 57 | 1011.8 |
| 20260506131503 | 21 | 89 | 14.5 | 35.4 | 0.00 | 0.00 | 0.00 | 54 | 1011.6 |
| 20260506131004 | 21 | 90 | 12.9 | 35.4 | 0.00 | 0.00 | 0.00 | 54 | 1011.9 |
| 20260506130503 | 21 | 65 | 11.3 | 30.6 | 0.00 | 0.00 | 0.00 | 63 | 1011.9 |
| 20260506130003 | 20 | 81 | 14.5 | 33.8 | 0.00 | 0.00 | 0.00 | 67 | 1011.7 |
| 20260506125503 | 21 | 102 | 16.1 | 33.8 | 0.00 | 0.00 | 0.00 | 67 | 1012.0 |
| 20260506125217 | 21 | 101 | 16.1 | 33.8 | 0.00 | 0.00 | 0.00 | 67 | 1011.9 |
| 20260506124503 | 20 | 97 | 14.5 | 35.4 | 0.00 | 0.00 | 0.00 | 66 | 1011.8 |
| 20260506124003 | 21 | 90 | 14.5 | 30.6 | 0.00 | 0.00 | 0.00 | 62 | 1012.0 |
| 20260506123716 | 20 | 82 | 12.9 | 38.6 | 0.00 | 0.00 | 0.00 | 65 | 1011.9 |
| 20260506123003 | 21 | 76 | 11.3 | 38.6 | 0.00 | 0.00 | 0.00 | 68 | 1012.3 |
| 20260506122717 | 20 | 64 | 11.3 | 30.6 | 0.00 | 0.00 | 0.00 | 67 | 1012.2 |
| 20260506122003 | 20 | 84 | 14.5 | 35.4 | 0.00 | 0.00 | 0.00 | 70 | 1012.3 |
| 20260506121503 | 20 | 98 | 14.5 | 35.4 | 0.00 | 0.00 | 0.00 | 71 | 1012.1 |
| 20260506121004 | 21 | 94 | 12.9 | 37.0 | 0.00 | 0.00 | 0.00 | 68 | 1012.2 |
| 20260506120503 | 21 | 105 | 11.3 | 37.0 | 0.00 | 0.00 | 0.00 | 69 | 1012.2 |
| 20260506120003 | 20 | 102 | 11.3 | 35.4 | 0.00 | 0.00 | 0.00 | 72 | 1012.0 |
| 20260506115715 | 20 | 89 | 12.9 | 33.8 | 0.00 | 0.00 | 0.00 | 72 | 1012.2 |
| 20260506115003 | 20 | 83 | 16.1 | 38.6 | 0.00 | 0.00 | 0.00 | 72 | 1012.5 |
| 20260506114503 | 20 | 85 | 16.1 | 38.6 | 0.00 | 0.00 | 0.00 | 74 | 1012.6 |
| 20260506114003 | 20 | 94 | 17.7 | 38.6 | 0.00 | 0.00 | 0.00 | 74 | 1012.5 |
| 20260506113503 | 20 | 84 | 12.9 | 37.0 | 0.00 | 0.00 | 0.00 | 74 | 1012.5 |
| 20260506113003 | 20 | 60 | 12.9 | 35.4 | 0.00 | 0.00 | 0.00 | 74 | 1012.6 |
| 20260506112503 | 20 | 59 | 14.5 | 37.0 | 0.00 | 0.00 | 0.00 | 74 | 1012.3 |
| 20260506112003 | 20 | 80 | 12.9 | 37.0 | 0.00 | 0.00 | 0.00 | 74 | 1012.6 |
| 20260506111503 | 20 | 91 | 12.9 | 38.6 | 0.00 | 0.00 | 0.00 | 75 | 1012.5 |
| 20260506111003 | 20 | 89 | 11.3 | 38.6 | 0.00 | 0.00 | 0.00 | 75 | 1012.7 |
| 20260506110503 | 20 | 96 | 16.1 | 37.0 | 0.00 | 0.00 | 0.00 | 74 | 1012.3 |
| 20260506110217 | 20 | 83 | 17.7 | 54.7 | 0.00 | 0.00 | 0.00 | 74 | 1012.9 |
| 20260506105503 | 20 | 66 | 16.1 | 54.7 | 0.00 | 0.00 | 0.00 | 74 | 1012.4 |
| 20260506105003 | 20 | 74 | 12.9 | 35.4 | 0.00 | 0.00 | 0.00 | 74 | 1012.3 |
| 20260506104503 | 20 | 80 | 14.5 | 41.8 | 0.00 | 0.00 | 0.00 | 73 | 1012.3 |
| 20260506104004 | 20 | 82 | 14.5 | 41.8 | 0.00 | 0.00 | 0.00 | 73 | 1012.7 |
| 20260506103503 | 20 | 89 | 16.1 | 41.8 | 0.00 | 0.00 | 0.00 | 73 | 1012.5 |
| 20260506103215 | 20 | 78 | 16.1 | 41.8 | 0.00 | 0.00 | 0.00 | 72 | 1012.7 |
| 20260506102503 | 20 | 73 | 12.9 | 38.6 | 0.00 | 0.00 | 0.00 | 72 | 1012.6 |
| 20260506102003 | 20 | 85 | 14.5 | 38.6 | 0.00 | 0.00 | 0.00 | 72 | 1012.7 |
| 20260506101503 | 20 | 94 | 16.1 | 38.6 | 0.00 | 0.00 | 0.00 | 71 | 1012.7 |
| 20260506101003 | 20 | 88 | 14.5 | 35.4 | 0.00 | 0.00 | 0.00 | 70 | 1012.6 |
| 20260506100503 | 21 | 73 | 11.3 | 33.8 | 0.00 | 0.00 | 0.00 | 69 | 1012.6 |
| 20260506100004 | 20 | 84 | 11.3 | 33.8 | 0.00 | 0.00 | 0.00 | 69 | 1012.7 |
| 20260506095503 | 21 | 96 | 12.9 | 35.4 | 0.00 | 0.00 | 0.00 | 68 | 1012.8 |
| 20260506095003 | 20 | 99 | 14.5 | 35.4 | 0.00 | 0.00 | 0.00 | 69 | 1012.7 |
| 20260506094503 | 20 | 85 | 12.9 | 35.4 | 0.00 | 0.00 | 0.00 | 69 | 1012.5 |
| 20260506094004 | 20 | 71 | 9.7 | 27.4 | 0.00 | 0.00 | 0.00 | 68 | 1012.5 |
| 20260506093713 | 20 | 80 | 11.3 | 27.4 | 0.00 | 0.00 | 0.00 | 69 | 1012.5 |
| 20260506093003 | 20 | 86 | 9.7 | 27.4 | 0.00 | 0.00 | 0.00 | 69 | 1012.7 |
| 20260506092503 | 20 | 98 | 12.9 | 30.6 | 0.00 | 0.00 | 0.00 | 70 | 1012.5 |
| 20260506092003 | 20 | 91 | 14.5 | 30.6 | 0.00 | 0.00 | 0.00 | 73 | 1012.3 |
| 20260506091503 | 20 | 83 | 12.9 | 30.6 | 0.00 | 0.00 | 0.00 | 71 | 1012.5 |
| 20260506091003 | 20 | 96 | 11.3 | 29.0 | 0.00 | 0.00 | 0.00 | 73 | 1012.4 |
| 20260506090504 | 20 | 95 | 12.9 | 30.6 | 0.00 | 0.00 | 0.00 | 73 | 1012.5 |
| 20260506090003 | 20 | 82 | 11.3 | 33.8 | 0.00 | 0.00 | 0.00 | 75 | 1012.4 |
| 20260506085504 | 20 | 64 | 11.3 | 33.8 | 0.00 | 0.00 | 0.00 | 74 | 1012.6 |
| 20260506085003 | 19 | 66 | 11.3 | 33.8 | 0.00 | 0.00 | 0.00 | 75 | 1012.5 |
| 20260506084503 | 19 | 47 | 12.9 | 33.8 | 0.00 | 0.00 | 0.00 | 74 | 1012.5 |
| 20260506084003 | 20 | 43 | 11.3 | 33.8 | 0.00 | 0.00 | 0.00 | 73 | 1012.3 |
| 20260506083713 | 20 | 64 | 9.7 | 27.4 | 0.00 | 0.00 | 0.00 | 73 | 1012.4 |
| 20260506083216 | 20 | 70 | 8.0 | 24.1 | 0.00 | 0.00 | 0.00 | 73 | 1012.5 |
| 20260506082714 | 19 | 77 | 9.7 | 29.0 | 0.00 | 0.00 | 0.00 | 74 | 1012.4 |
| 20260506082003 | 19 | 95 | 12.9 | 29.0 | 0.00 | 0.00 | 0.00 | 73 | 1012.1 |
| 20260506081503 | 19 | 88 | 14.5 | 35.4 | 0.00 | 0.00 | 0.00 | 73 | 1012.3 |
| 20260506081003 | 19 | 70 | 12.9 | 35.4 | 0.00 | 0.00 | 0.00 | 73 | 1012.4 |
| 20260506080716 | 19 | 50 | 12.9 | 29.0 | 0.00 | 0.00 | 0.00 | 74 | 1012.3 |
| 20260506073509 | 18 | 44 | 6.4 | 27.4 | 0.00 | 0.00 | 0.00 | 73 | 1012.2 |
| 20260506073003 | 18 | 40 | 8.0 | 20.9 | 0.00 | 0.00 | 0.00 | 71 | 1012.4 |
| 20260506072503 | 18 | 33 | 8.0 | 20.9 | 0.00 | 0.00 | 0.00 | 70 | 1012.3 |
| 20260506072003 | 18 | 12 | 8.0 | 16.1 | 0.00 | 0.00 | 0.00 | 67 | 1012.3 |
| 20260506071716 | 18 | 8 | 6.4 | 16.1 | 0.00 | 0.00 | 0.00 | 64 | 1012.3 |
| 20260506071003 | 18 | 1 | 6.4 | 17.7 | 0.00 | 0.00 | 0.00 | 59 | 1012.4 |
| 20260506070717 | 18 | 347 | 8.0 | 17.7 | 0.00 | 0.00 | 0.00 | 59 | 1012.4 |
| 20260506062503 | 16 | 10 | 6.4 | 12.9 | 0.00 | 0.00 | 0.00 | 68 | 1012.3 |
| 20260506062003 | 16 | 357 | 8.0 | 12.9 | 0.00 | 0.00 | 0.00 | 69 | 1012.2 |
| 20260506061503 | 16 | 16 | 6.4 | 12.9 | 0.00 | 0.00 | 0.00 | 71 | 1011.8 |
| 20260506061003 | 16 | 34 | 4.8 | 12.9 | 0.00 | 0.00 | 0.00 | 74 | 1012.2 |
| 20260506060503 | 16 | 31 | 4.8 | 16.1 | 0.00 | 0.00 | 0.00 | 75 | 1012.3 |
| 20260506051003 | 14 | 247 | 1.6 | 3.2 | 0.00 | 0.00 | 0.00 | 78 | 1011.3 |
| 20260506050503 | 14 | 248 | 1.6 | 3.2 | 0.00 | 0.00 | 0.00 | 78 | 1011.1 |
| 20260506044503 | 13 | 250 | 1.6 | 4.8 | 0.00 | 0.00 | 0.00 | 78 | 1010.9 |
| 20260506044003 | 13 | 244 | 3.2 | 4.8 | 0.00 | 0.00 | 0.00 | 78 | 1011.0 |
| 20260506043503 | 13 | 240 | 3.2 | 4.8 | 0.00 | 0.00 | 0.00 | 78 | 1010.8 |